Погода в Округе Клатен

Индонезия     7°42′48″S   110°35′32″E
темп.,
°C
ветер,
м/с
пор.,
м/с
влажн.,
%
обл.,
%
осадки,
мм/ч
давл.,
гПа
погр.,
м
5 декабря, вс
вс501:00+23з2589100 0.1 1010180
04:00+22з2291100 0.0 101052
07:00+24з128099 0.0 1011229
10:00+27юз3468100 0.1 1011943
13:00+28зюз5666100 0.4 10091095
16:00+26зюз5875100 0.5 1008811
19:00+24зюз2486100 0.8 1011104
22:00+23зсз119193 2.0 101123
6 декабря, пн
пн601:00+22зсз129591 5.5 100956
04:00+22зсз1196100 4.6 100971
07:00+24зюз2392100 7.1 1011296
10:00+26юз3578100 0.2 1011578
13:00+26юз568093 1.8 1009714
16:00+23юз2598100 9.4 1009231
19:00+23ссз1296100 19.9 101199
22:00+22в1195100 0.9 101126
7 декабря, вт
вт701:00+22всв2296100 0.9 100992
04:00+22всв359793 0.0 1008212
07:00+23всв349246 0.0 1010255
10:00+28в126847 0.0 10101026
13:00+29ююв226999 2.6 1008884
16:00+28ююз227697 2.4 1007273
19:00+24сз0194100 10.9 101049
22:00+24сз119298 2.2 101118
8 декабря, ср
ср801:00+23ссв119287 5.1 100917
04:00+23св229381 0.4 100926
07:00+25всв22855 0.5 1011259
10:00+30вюв226371 0.0 10101010
13:00+30ю226145 2.1 10081200
16:00+26ююз248595 7.8 1008270
19:00+24зюз238991 13.8 1011111
22:00+24с1191100 4.8 101222
9 декабря, чт
чт901:00+23всв129599 7.8 101099
04:00+23ссв019299 0.4 100937
07:00+24ююз018792 0.5 1011122
10:00+27ю227252 0.6 1011740
13:00+29ю336472 2.8 10091219
16:00+28ю446932 1.4 1008945
19:00+24юз118769 2.8 101123
22:00+24зюз1189100 0.7 101216